Regional Weather Roundup
Issued by NWS Cleveland, OH

Home | Current Version | Previous Version | Text Only | Print | Product List | Glossary Off
Versions: 1 2 3 4 5 6 7 8 9 10 11 12 13 14 15 16 17 18 19 20 21 22 23 24 25 26 27 28 29 30 31 32 33 34 35 36 37 38 39 40 41 42 43 44 45 46 47 48 49 50

000
ASUS41 KCLE 281510
RWRCLE
OHIO REGIONAL WEATHER ROUNDUP
NATIONAL WEATHER SERVICE WILMINGTON, OH
1100 AM EDT MON JUL 28 2014

NOTE: "FAIR" INDICATES FEW OR NO CLOUDS BELOW 12,000 FEET WITH NO
SIGNIFICANT WEATHER AND/OR OBSTRUCTIONS TO VISIBILITY.

OHZ001>008-015>018-024>027-034-035-043-044-281600-
   NORTHWEST OHIO

CITY           SKY/WX    TMP DP  RH WIND       PRES   REMARKS
DEFIANCE       MOSUNNY   69  57  65 NW13      29.93R
FINDLAY        CLOUDY    68  57  68 NW12G21   29.89R
TOLEDO EXPRESS PTSUNNY   68  55  63 NW17      29.90R
TOLEDO METCALF PTSUNNY   67  53  61 NW16G24   29.91R
LIMA           PTSUNNY   67  57  70 NW14      29.92R
$$

OHZ009>014-019>023-028>033-038-089-281600-
   NORTHEAST OHIO

CITY           SKY/WX    TMP DP  RH WIND       PRES   REMARKS
CLE-HOPKINS    CLOUDY    65  58  78 NW20G26   29.82R
CLE-LAKEFRONT  CLOUDY    66  60  81 NW24G30   29.77R
CUY CO. ARPT   CLOUDY    61  61 100 N12       29.78R
LORAIN-ELYRIA  CLOUDY    68  58  70 N21G31    29.83R
ASHTABULA      CLOUDY    65  62  90 N9G21     29.73R
AKRON-CANTON   LGT RAIN  65  60  84 NW15G30   29.78R
WOOSTER        PTSUNNY   66  59  78 N18G28    29.82R
MANSFIELD      CLOUDY    64  60  87 NW16G24   29.86R
YOUNGSTOWN     PTSUNNY   65  61  87 NW13G23   29.72R
$$

OHZ042-051>053-060>062-070>072-077>081-281600-
  SOUTHWEST OHIO

CITY           SKY/WX    TMP DP  RH WIND       PRES   REMARKS
CINC-COVINGTON CLOUDY    68  59  73 NW9       29.95R
CINC-LUNKEN    CLOUDY    69  59  70 NW10G16   29.94R
HAMILTON       CLOUDY    69  60  73 NW12      29.95R
DAYTON         CLOUDY    67  60  78 NW13      29.94R
WRIGHT-PAT AFB PTSUNNY   66  60  81 NW12      29.92R
DAYTON GENERAL CLOUDY    68  59  73 NW13      29.92R
WILMINGTON     CLOUDY    67  57  70 NW12      29.91R
$$

OHZ036-037-039>041-045>050-054>059-063>069-073>076-082>088-281600-
  CENTRAL AND SOUTHEAST OHIO

CITY           SKY/WX    TMP DP  RH WIND       PRES   REMARKS
COLUMBUS       CLOUDY    69  58  67 NW18G24   29.86R
OSU AIRPORT    PTSUNNY   68  59  73 NW14      29.87R
BOLTON FIELD   PTSUNNY   64  61  88 NW15G22   29.88R
RICKENBACK AFB   N/A     69  57  65 NW13G21   29.87R
NEWARK         PTSUNNY   68  60  75 NW10G20   29.85R
MARION         CLOUDY    65  59  81 NW16      29.88R
LANCASTER      CLOUDY    66  59  78 NW7       29.87R
ZANESVILLE     CLOUDY    67  58  72 W12       29.83R
NEW PHILLY     CLOUDY    65  61  87 W13G23    29.80R
$$


USA.gov is the U.S. government's official web portal to all federal, state and local government web resources and services.